Location: Friedrichshafen
(47.6598°N, 9.4819°E)
Time: 02:48:31
(UTC+02:00)

OTV 5 (USA 277) - Visible Passes

Search period start: 21 August 2018 00:00
Search period end: 31 August 2018 00:00
Orbit: 322 x 328 km, 54.5° (Epoch: 19 August)

Date Brightness Start Highest point End Pass type
(mag) Time Alt. Az. Time Alt. Az. Time Alt. Az.
21 Aug ? 21:53:04 10° W 21:55:46 45° NNW 21:58:29 10° NE visible
21 Aug ? 23:28:35 10° NW 23:29:55 17° NNW 23:29:55 17° NNW visible
22 Aug ? 22:10:48 10° WNW 22:13:15 27° NNW 22:15:36 11° NE visible
22 Aug ? 23:46:13 10° NW 23:46:39 12° NW 23:46:39 12° NW visible
23 Aug ? 20:53:09 10° WSW 20:55:54 58° NNW 20:58:40 10° NE visible
23 Aug ? 22:28:36 10° WNW 22:30:49 21° N 22:32:13 15° NNE visible
24 Aug ? 21:10:48 10° W 21:13:21 31° NNW 21:15:54 10° NE visible
24 Aug ? 22:46:17 10° NW 22:48:26 19° N 22:48:46 19° N visible
25 Aug ? 21:28:36 10° WNW 21:30:53 22° N 21:33:11 10° NE visible
25 Aug ? 23:03:46 10° NW 23:05:15 19° NNW 23:05:15 19° NNW visible
26 Aug ? 21:46:21 10° NW 21:48:29 19° N 21:50:38 10° NE visible
26 Aug ? 23:21:04 10° NW 23:21:44 15° NW 23:21:44 15° NW visible
27 Aug ? 22:03:55 10° NW 22:06:06 20° N 22:07:09 17° NE visible
28 Aug ? 20:46:23 10° NW 20:48:33 20° N 20:50:43 10° NE visible
28 Aug ? 22:21:15 10° NW 22:23:36 26° NNE 22:23:36 26° NNE visible
29 Aug ? 21:04:00 10° NW 21:06:10 20° N 21:08:19 10° NE visible
29 Aug ? 22:38:29 10° NW 22:40:04 26° NNW 22:40:04 26° NNW visible
30 Aug ? 21:21:25 10° NW 21:23:46 23° NNE 21:25:31 14° ENE visible
30 Aug ? 22:55:46 10° WNW 22:56:33 17° WNW 22:56:33 17° WNW visible
